EW9427 Weather Reports


Display with metric or nautical units.
time (UTC)temp
F
wind
direction
speed
MPH
gust
MPH
rain 1hr
in
rain 24hr
in
rain mn
in
humidity
%
barometer
mb
20260503203012 71 309 7.0 17.0 0.00 0.00 0.00 23 1010.9
20260503201506 72 298 10.0 17.0 0.00 0.00 0.00 24 1011.2
20260503200006 71 336 8.0 19.0 0.00 0.00 0.00 23 1011.4
20260503194502 70 254 11.0 19.0 0.00 0.00 0.00 23 1011.5
20260503193110 71 315 10.0 16.0 0.00 0.00 0.00 22 1011.7
20260503191608 69 280 11.0 18.0 0.00 0.00 0.00 23 1011.8
20260503190057 69 304 6.0 14.0 0.00 0.00 0.00 23 1012.0
20260503184553 70 261 6.0 13.0 0.00 0.00 0.00 24 1012.2
20260503183056 70 260 8.0 15.0 0.00 0.00 0.00 24 1012.3
20260503181558 69 277 9.0 18.0 0.00 0.00 0.00 25 1012.6
20260503180049 69 345 7.0 17.0 0.00 0.00 0.00 25 1012.7
20260503174543 69 327 10.0 17.0 0.00 0.00 0.00 25 1012.8
20260503173040 68 340 10.0 16.0 0.00 0.00 0.00 25 1013.1
20260503171535 68 286 9.0 16.0 0.00 0.00 0.00 27 1013.1
20260503081542 35 316 1.0 4.0 0.00 0.00 0.00 79 1015.7
20260503071530 37 316 3.0 5.0 0.00 0.00 0.00 75 1016.1
20260503054513 44 24 0.0 0.0 0.00 0.00 0.00 66 1016.2
20260503053013 47 24 2.0 4.0 0.00 0.00 0.00 61 1016.3
20260503051504 50 300 1.0 5.0 0.00 0.00 0.00 62 1016.2
20260503050003 49 203 1.0 4.0 0.00 0.00 0.00 64 1016.3
20260503044501 50 243 3.0 5.0 0.00 0.00 0.00 65 1016.3
20260503043100 51 205 0.0 3.0 0.00 0.00 0.00 61 1016.4
20260503041613 54 252 2.0 4.0 0.00 0.00 0.00 57 1016.4
20260503040058 56 244 7.0 10.0 0.00 0.00 0.00 55 1016.6
20260503034557 55 225 4.0 9.0 0.00 0.00 0.00 50 1016.6
20260503033116 55 28 0.0 3.0 0.00 0.00 0.00 49 1016.5
20260503031557 55 28 1.0 3.0 0.00 0.00 0.00 45 1016.2
20260503030105 55 28 0.0 4.0 0.00 0.00 0.00 46 1016.0
20260503024601 56 28 0.0 0.0 0.00 0.00 0.00 45 1016.0
20260503023057 57 28 0.0 3.0 0.00 0.00 0.00 44 1015.8
20260503021601 58 28 0.0 2.0 0.00 0.00 0.00 43 1015.8
20260503020101 60 28 2.0 4.0 0.00 0.00 0.00 41 1015.8
20260503014554 62 28 2.0 4.0 0.00 0.00 0.00 39 1015.8
20260503013053 64 28 2.0 6.0 0.00 0.00 0.00 38 1015.8
20260503011603 64 63 1.0 6.0 0.00 0.00 0.00 38 1015.9
20260503010058 64 360 1.0 8.0 0.00 0.00 0.00 38 1016.1
20260503004552 64 17 2.0 6.0 0.00 0.00 0.00 38 1016.2
20260503003100 64 5 5.0 8.0 0.00 0.00 0.00 38 1016.3
20260503001553 64 119 2.0 6.0 0.00 0.00 0.00 37 1016.4
20260503000050 65 236 1.0 3.0 0.00 0.00 0.00 39 1016.5
20260502234553 65 236 0.0 2.0 0.00 0.00 0.00 37 1016.6
20260502233048 65 250 3.0 8.0 0.00 0.00 0.00 36 1016.7
20260502231548 65 286 4.0 7.0 0.00 0.00 0.00 37 1016.9
20260502230048 66 295 4.0 9.0 0.00 0.00 0.00 37 1017.0
20260502224547 65 198 7.0 10.0 0.00 0.00 0.00 37 1017.1
20260502223046 64 296 1.0 5.0 0.00 0.00 0.00 39 1017.4
20260502221547 65 202 3.0 9.0 0.00 0.00 0.00 38 1017.6
20260502220106 64 344 2.0 9.0 0.00 0.00 0.00 38 1017.8
20260502214543 63 355 4.0 8.0 0.00 0.00 0.00 39 1018.0
20260502213043 63 342 3.0 7.0 0.00 0.00 0.00 41 1018.3
20260502211544 63 286 2.0 8.0 0.00 0.00 0.00 41 1018.4
20260502210043 64 355 6.0 10.0 0.00 0.00 0.00 40 1018.5
20260502204541 64 61 6.0 11.0 0.00 0.00 0.00 40 1018.5